Total_Precipitation_Accumulation
0.12 0.30 0.45 0.38 0.29 0.24 0.18 0.14 0.10 0.06 0.06 0.05 0.03 0.02 0.01 0.01 0.00 0.00 0.00 0.00 0.00 0.00 0.00 0.00 0.00 0.01 0.05 0.14 0.24 0.38 0.68 1.02 1.12 0.93 0.75 0.65 0.59 0.44 0.29 0.21 0.24 0.34 0.33 0.27
0.07 0.16 0.17 0.13 0.13 0.16 0.19 0.21 0.17 0.11 0.07 0.05 0.03 0.02 0.01 0.00 0.01 0.01 0.00 0.00 0.00 0.00 0.00 0.00 0.00 0.02 0.07 0.20 0.34 0.46 0.67 0.99 1.06 0.97 0.85 0.76 0.72 0.57 0.43 0.35 0.30 0.38 0.39 0.43
0.04 0.05 0.05 0.08 0.15 0.22 0.25 0.26 0.22 0.17 0.09 0.06 0.03 0.02 0.01 0.00 0.00 0.00 0.00 0.00 0.00 0.00 0.00 0.00 0.00 0.01 0.04 0.13 0.24 0.37 0.48 0.62 0.70 0.73 0.72 0.77 0.76 0.69 0.67 0.61 0.51 0.47 0.46 0.55
0.02 0.02 0.04 0.07 0.09 0.14 0.20 0.14 0.10 0.08 0.08 0.07 0.05 0.05 0.01 0.00 0.00 0.00 0.00 0.00 0.00 0.00 0.00 0.00 0.00 0.00 0.02 0.05 0.11 0.20 0.27 0.34 0.38 0.40 0.48 0.66 0.77 0.79 0.76 0.67 0.58 0.58 0.58 0.63
0.00 0.01 0.02 0.04 0.06 0.09 0.10 0.06 0.06 0.06 0.06 0.06 0.05 0.05 0.01 0.00 0.00 0.00 0.00 0.00 0.00 0.00 0.00 0.00 0.00 0.00 0.00 0.01 0.03 0.06 0.09 0.10 0.14 0.17 0.25 0.39 0.46 0.56 0.67 0.58 0.56 0.66 0.69 0.67
0.00 0.00 0.00 0.01 0.02 0.04 0.05 0.05 0.05 0.04 0.05 0.05 0.03 0.04 0.02 0.01 0.00 0.00 0.00 0.00 0.00 0.00 0.00 0.00 0.00 0.00 0.00 0.01 0.01 0.02 0.03 0.03 0.03 0.05 0.09 0.14 0.22 0.38 0.69 0.75 0.74 0.85 0.88 0.74
0.00 0.00 0.00 0.00 0.00 0.01 0.02 0.05 0.08 0.07 0.07 0.04 0.02 0.01 0.01 0.00 0.00 0.00 0.00 0.00 0.00 0.00 0.00 0.00 0.00 0.00 0.00 0.00 0.01 0.01 0.02 0.03 0.04 0.04 0.04 0.08 0.14 0.21 0.51 0.77 0.75 0.72 0.81 0.81
0.00 0.00 0.00 0.00 0.00 0.02 0.01 0.03 0.07 0.08 0.07 0.04 0.01 0.01 0.00 0.00 0.00 0.00 0.00 0.00 0.00 0.00 0.00 0.00 0.00 0.00 0.01 0.01 0.01 0.02 0.03 0.06 0.07 0.04 0.03 0.05 0.09 0.11 0.20 0.37 0.47 0.50 0.53 0.64
0.00 0.00 0.00 0.00 0.00 0.00 0.01 0.01 0.01 0.03 0.02 0.02 0.01 0.00 0.00 0.00 0.00 0.00 0.00 0.00 0.00 0.00 0.00 0.00 0.00 0.00 0.01 0.02 0.02 0.03 0.05 0.12 0.14 0.13 0.11 0.09 0.10 0.15 0.23 0.25 0.31 0.48 0.50 0.50
0.04 0.02 0.01 0.01 0.01 0.01 0.01 0.01 0.02 0.05 0.07 0.07 0.03 0.02 0.03 0.02 0.02 0.01 0.01 0.01 0.02 0.02 0.02 0.01 0.01 0.02 0.01 0.02 0.03 0.02 0.04 0.10 0.23 0.34 0.31 0.24 0.23 0.29 0.51 0.57 0.38 0.38 0.46 0.46
0.17 0.12 0.04 0.03 0.04 0.06 0.08 0.08 0.07 0.10 0.08 0.12 0.14 0.10 0.07 0.07 0.07 0.05 0.04 0.04 0.05 0.06 0.06 0.06 0.04 0.04 0.04 0.02 0.01 0.01 0.02 0.08 0.14 0.18 0.19 0.22 0.30 0.40 0.61 0.80 0.71 0.49 0.40 0.38
0.22 0.28 0.15 0.08 0.10 0.12 0.14 0.19 0.24 0.34 0.31 0.27 0.30 0.18 0.09 0.08 0.08 0.06 0.04 0.05 0.06 0.06 0.06 0.08 0.09 0.05 0.03 0.01 0.01 0.00 0.01 0.05 0.11 0.12 0.09 0.11 0.20 0.32 0.37 0.41 0.46 0.37 0.24 0.18
0.33 0.45 0.36 0.24 0.28 0.27 0.30 0.30 0.28 0.32 0.37 0.35 0.33 0.20 0.11 0.08 0.07 0.06 0.04 0.03 0.04 0.04 0.03 0.03 0.04 0.05 0.04 0.02 0.01 0.00 0.01 0.02 0.03 0.05 0.07 0.08 0.08 0.12 0.13 0.10 0.09 0.12 0.12 0.10
0.33 0.41 0.45 0.40 0.42 0.43 0.39 0.31 0.26 0.34 0.44 0.36 0.27 0.19 0.17 0.14 0.09 0.05 0.04 0.03 0.03 0.04 0.04 0.03 0.01 0.01 0.01 0.01 0.00 0.00 0.01 0.03 0.05 0.05 0.05 0.05 0.05 0.05 0.05 0.04 0.03 0.04 0.05 0.06
0.22 0.25 0.24 0.21 0.18 0.19 0.18 0.15 0.17 0.21 0.25 0.30 0.21 0.15 0.11 0.10 0.07 0.04 0.03 0.03 0.03 0.03 0.03 0.02 0.02 0.01 0.01 0.01 0.01 0.01 0.02 0.05 0.06 0.06 0.08 0.06 0.05 0.05 0.05 0.05 0.03 0.04 0.05 0.05
0.15 0.18 0.17 0.14 0.12 0.12 0.12 0.11 0.09 0.09 0.11 0.15 0.16 0.10 0.05 0.05 0.05 0.04 0.03 0.03 0.03 0.03 0.02 0.02 0.02 0.01 0.01 0.02 0.03 0.04 0.07 0.13 0.12 0.06 0.07 0.11 0.11 0.10 0.07 0.06 0.05 0.05 0.06 0.07
0.13 0.22 0.29 0.23 0.17 0.12 0.24 0.25 0.22 0.19 0.13 0.10 0.08 0.04 0.03 0.05 0.05 0.05 0.04 0.04 0.04 0.02 0.02 0.02 0.02 0.02 0.03 0.05 0.08 0.09 0.13 0.18 0.16 0.11 0.11 0.15 0.14 0.14 0.13 0.14 0.12 0.12 0.14 0.14
0.10 0.22 0.32 0.25 0.24 0.38 0.57 0.41 0.33 0.25 0.09 0.04 0.03 0.03 0.05 0.08 0.07 0.05 0.04 0.05 0.06 0.04 0.03 0.02 0.02 0.02 0.03 0.05 0.09 0.13 0.15 0.17 0.16 0.16 0.17 0.19 0.18 0.19 0.22 0.19 0.18 0.18 0.18 0.17
0.12 0.23 0.33 0.28 0.29 0.48 0.50 0.30 0.22 0.20 0.12 0.03 0.03 0.04 0.07 0.09 0.05 0.02 0.02 0.04 0.04 0.03 0.02 0.01 0.01 0.01 0.01 0.02 0.03 0.05 0.08 0.10 0.13 0.16 0.20 0.24 0.25 0.28 0.28 0.26 0.29 0.28 0.23 0.22
0.24 0.30 0.43 0.43 0.52 0.52 0.27 0.14 0.11 0.16 0.20 0.04 0.02 0.02 0.03 0.04 0.03 0.02 0.01 0.02 0.01 0.00 0.00 0.00 0.00 0.00 0.00 0.00 0.01 0.02 0.04 0.06 0.10 0.15 0.20 0.26 0.29 0.32 0.34 0.39 0.40 0.38 0.32 0.27
0.22 0.29 0.38 0.46 0.65 0.53 0.21 0.10 0.10 0.18 0.24 0.07 0.02 0.01 0.01 0.01 0.02 0.01 0.01 0.01 0.00 0.00 0.00 0.00 0.00 0.00 0.00 0.00 0.00 0.02 0.04 0.07 0.07 0.09 0.14 0.20 0.27 0.35 0.43 0.47 0.47 0.47 0.42 0.35
0.24 0.26 0.28 0.38 0.54 0.49 0.20 0.15 0.18 0.17 0.07 0.03 0.02 0.01 0.00 0.00 0.00 0.00 0.01 0.01 0.00 0.00 0.00 0.00 0.00 0.00 0.00 0.00 0.00 0.00 0.02 0.03 0.03 0.05 0.10 0.16 0.25 0.32 0.40 0.48 0.49 0.49 0.48 0.45
0.27 0.30 0.32 0.42 0.57 0.38 0.23 0.20 0.19 0.12 0.06 0.02 0.01 0.00 0.00 0.00 0.00 0.00 0.00 0.00 0.00 0.00 0.00 0.00 0.00 0.00 0.00 0.00 0.00 0.00 0.00 0.00 0.00 0.02 0.05 0.10 0.14 0.19 0.23 0.29 0.37 0.43 0.47 0.45
0.15 0.17 0.23 0.32 0.32 0.20 0.18 0.16 0.12 0.07 0.04 0.02 0.01 0.00 0.00 0.00 0.00 0.00 0.00 0.00 0.00 0.00 0.00 0.00 0.00 0.00 0.00 0.00 0.00 0.00 0.00 0.00 0.00 0.01 0.02 0.04 0.05 0.06 0.09 0.17 0.26 0.33 0.39 0.42
0.10 0.13 0.18 0.25 0.25 0.15 0.10 0.10 0.07 0.04 0.02 0.01 0.01 0.00 0.00 0.00 0.00 0.00 0.00 0.00 0.00 0.00 0.00 0.00 0.00 0.00 0.00 0.00 0.00 0.00 0.00 0.00 0.01 0.01 0.01 0.02 0.03 0.04 0.07 0.13 0.22 0.26 0.33 0.34
0.07 0.11 0.17 0.24 0.23 0.17 0.08 0.07 0.05 0.03 0.02 0.01 0.01 0.00 0.00 0.00 0.00 0.00 0.00 0.00 0.00 0.00 0.00 0.00 0.00 0.00 0.00 0.00 0.00 0.01 0.03 0.01 0.04 0.06 0.03 0.02 0.02 0.04 0.07 0.09 0.11 0.11 0.15 0.15